Midland, MI

12:40 PM EST on November 23, 2017 (GMT -0500)
Barstow

Weather History for KIKW - November, 2012

Change the Weather History Date:

Sunday, November 4, 2012

  Actual Average (KMBS) Record (KMBS)
Temperature  
Mean Temperature 32 °F -  
Max Temperature 40 °F 48 °F 75 °F (2015)
Min Temperature 24 °F 33 °F 21 °F (2006)
Degree Days  
Heating Degree Days 33    
Moisture  
Dew Point 24 °F    
Average Humidity 75    
Maximum Humidity 94    
Minimum Humidity 53    
Precipitation  
Precipitation 0.00 in - - ()
Sea Level Pressure  
Sea Level Pressure 30.19 in    
Wind  
Wind Speed 4 mph (NNW)    
Max Wind Speed 7 mph    
Max Gust Speed -    
Visibility 10 miles    
Events      
Averages and records for this station are not official NWS values.
T = Trace of Precipitation, MM = Missing Value Source: NWS Daily Summary

Daily Weather History Graph

Daily Weather History Graph

Search for Another Location

Airport or City:

Trip Planner

Search our weather history database for the weather conditions in past years. The results will help you decide how hot, cold, wet, or windy it might be!

Date:

Astronomy

Nov. 04, 2012 Rise Set
Actual Time 7:17 AM EST 5:23 PM EST
Civil Twilight 6:47 AM EST 5:53 PM EST
Nautical Twilight 6:13 AM EST 6:27 PM EST
Astronomical Twilight 5:39 AM EST 7:00 PM EST
Moon 9:58 PM EST (11/4) 12:02 PM EST (11/4)
Length of Visible Light 11h 06m
Length of Day
10h 05m
Waning Gibbous, 72% of the Moon is Illuminated
Nov 4
Waning Gibbous
Nov 6
Last Quarter
Nov 13
New
Nov 20
First Quarter
Nov 28
Full

Hourly Weather History & Observations

Time (EST) Temp. Windchill Dew Point Humidity Pressure Visibility Wind Dir Wind Speed Gust Speed Precip Events Conditions
12:14 AM 32.0 °F 26.4 °F 25.7 °F 78% 30.20 in 10.0 mi NE 5.8 mph - N/A   Overcast
12:33 AM 32.0 °F 26.4 °F 25.7 °F 78% 30.20 in 10.0 mi NNE 5.8 mph - N/A   Overcast
12:53 AM 32.0 °F 27.5 °F 25.5 °F 77% 30.21 in 10.0 mi North 4.6 mph - N/A   Overcast
1:13 AM 31.8 °F - 25.5 °F 78% 30.21 in 10.0 mi Calm Calm - N/A   Overcast
1:33 AM 31.6 °F 28.3 °F 25.5 °F 78% 30.20 in 10.0 mi North 3.5 mph - N/A   Overcast
1:53 AM 31.1 °F 25.4 °F 24.8 °F 77% 30.20 in 10.0 mi NNE 5.8 mph - N/A   Overcast
1:13 AM 31.1 °F 27.7 °F 24.6 °F 77% 30.20 in 10.0 mi North 3.5 mph - N/A   Overcast
1:33 AM 30.7 °F 26.0 °F 24.4 °F 77% 30.20 in 10.0 mi NW 4.6 mph - N/A   Overcast
1:53 AM 29.5 °F 24.5 °F 23.9 °F 80% 30.20 in 10.0 mi NNW 4.6 mph - N/A   Scattered Clouds
2:14 AM 28.9 °F 25.2 °F 23.9 °F 81% 30.20 in 10.0 mi NNW 3.5 mph - N/A   Clear
2:33 AM 27.9 °F 24.0 °F 23.0 °F 82% 30.20 in 10.0 mi NNW 3.5 mph - N/A   Clear
2:53 AM 26.4 °F 20.9 °F 23.0 °F 87% 30.20 in 10.0 mi NW 4.6 mph - N/A   Clear
3:13 AM 27.1 °F 23.2 °F 23.5 °F 86% 30.20 in 10.0 mi NW 3.5 mph - N/A   Mostly Cloudy
3:33 AM 28.2 °F 24.4 °F 23.9 °F 84% 30.19 in 10.0 mi NNW 3.5 mph - N/A   Overcast
3:53 AM 28.6 °F 23.5 °F 23.9 °F 83% 30.19 in 10.0 mi NW 4.6 mph - N/A   Overcast
4:13 AM 29.1 °F 24.1 °F 24.1 °F 81% 30.20 in 10.0 mi WNW 4.6 mph - N/A   Overcast
4:33 AM 29.1 °F 24.1 °F 24.1 °F 81% 30.20 in 10.0 mi NW 4.6 mph - N/A   Overcast
4:53 AM 28.9 °F 23.9 °F 24.1 °F 82% 30.20 in 10.0 mi NW 4.6 mph - N/A   Overcast
5:13 AM 28.6 °F - 24.3 °F 84% 30.20 in 10.0 mi Calm Calm - N/A   Overcast
5:33 AM 28.2 °F 24.4 °F 23.9 °F 84% 30.20 in 10.0 mi NNW 3.5 mph - N/A   Overcast
5:54 AM 28.9 °F 25.2 °F 24.8 °F 84% 30.21 in 10.0 mi WNW 3.5 mph - N/A   Overcast
6:13 AM 29.8 °F - 24.8 °F 81% 30.21 in 10.0 mi Calm Calm - N/A   Overcast
6:33 AM 30.0 °F 25.2 °F 24.8 °F 81% 30.21 in 10.0 mi WNW 4.6 mph - N/A   Overcast
6:54 AM 30.2 °F 26.7 °F 24.6 °F 80% 30.20 in 10.0 mi NW 3.5 mph - N/A   Overcast
7:13 AM 30.2 °F 25.4 °F 24.8 °F 80% 30.21 in 10.0 mi WNW 4.6 mph - N/A   Overcast
7:33 AM 30.6 °F 24.7 °F 24.8 °F 79% 30.21 in 10.0 mi NW 5.8 mph - N/A   Overcast
7:54 AM 30.9 °F 26.2 °F 25.2 °F 79% 30.22 in 10.0 mi WNW 4.6 mph - N/A   Overcast
8:13 AM 31.3 °F 25.6 °F 25.5 °F 79% 30.22 in 10.0 mi WNW 5.8 mph - N/A   Overcast
8:33 AM 31.8 °F 27.3 °F 25.5 °F 78% 30.22 in 10.0 mi NW 4.6 mph - N/A   Overcast
8:54 AM 32.0 °F 25.6 °F 25.7 °F 78% 30.22 in 10.0 mi NW 6.9 mph - N/A   Overcast
9:13 AM 32.2 °F 25.8 °F 25.5 °F 76% 30.22 in 10.0 mi NNW 6.9 mph - N/A   Overcast
9:33 AM 32.9 °F 26.7 °F 25.5 °F 74% 30.22 in 10.0 mi NNW 6.9 mph - N/A   Overcast
9:54 AM 33.8 °F 27.7 °F 25.7 °F 72% 30.22 in 10.0 mi NW 6.9 mph - N/A   Overcast
10:13 AM 33.3 °F 27.1 °F 25.0 °F 72% 30.22 in 10.0 mi NNW 6.9 mph - N/A   Overcast
10:34 AM 33.8 °F 28.6 °F 25.2 °F 71% 30.22 in 10.0 mi NNW 5.8 mph - N/A   Overcast
10:53 AM 34.2 °F 31.2 °F 25.0 °F 69% 30.22 in 10.0 mi North 3.5 mph - N/A   Overcast
11:13 AM 33.8 °F - 24.3 °F 68% 30.22 in 10.0 mi Calm Calm - N/A   Overcast
11:34 AM 34.3 °F 28.4 °F 24.6 °F 68% 30.21 in 10.0 mi NNW 6.9 mph - N/A   Overcast
11:53 AM 34.7 °F 31.8 °F 24.3 °F 66% 30.20 in 10.0 mi NNW 3.5 mph - N/A   Overcast
12:13 PM 35.2 °F 31.2 °F 24.4 °F 65% 30.20 in 10.0 mi WNW 4.6 mph - N/A   Overcast
12:34 PM 35.2 °F - 24.4 °F 65% 30.19 in 10.0 mi Calm Calm - N/A   Scattered Clouds
12:53 PM 37.8 °F 33.3 °F 25.2 °F 60% 30.19 in 10.0 mi NNW 5.8 mph - N/A   Mostly Cloudy
1:13 PM 36.9 °F 34.3 °F 24.3 °F 60% 30.19 in 10.0 mi North 3.5 mph - N/A   Scattered Clouds
1:34 PM 38.1 °F - 24.6 °F 58% 30.18 in 10.0 mi Calm Calm - N/A   Scattered Clouds
1:53 PM 38.3 °F 34.8 °F 24.1 °F 57% 30.18 in 10.0 mi WNW 4.6 mph - N/A   Scattered Clouds
2:14 PM 39.4 °F 36.1 °F 24.3 °F 55% 30.17 in 10.0 mi West 4.6 mph - N/A   Clear
2:33 PM 38.7 °F - 23.7 °F 55% 30.17 in 10.0 mi Calm Calm - N/A   Clear
2:53 PM 39.2 °F 37.0 °F 23.9 °F 54% 30.17 in 10.0 mi North 3.5 mph - N/A   Clear
3:14 PM 38.5 °F - 23.7 °F 55% 30.17 in 10.0 mi Calm Calm - N/A   Clear
3:33 PM 39.4 °F - 23.7 °F 54% 30.17 in 10.0 mi Calm Calm - N/A   Clear
3:53 PM 39.2 °F - 24.3 °F 55% 30.17 in 10.0 mi Calm Calm - N/A   Clear
4:14 PM 40.1 °F - 24.1 °F 53% 30.17 in 10.0 mi Calm Calm - N/A   Clear
4:33 PM 39.4 °F - 23.7 °F 54% 30.16 in 10.0 mi Calm Calm - N/A   Clear
4:54 PM 38.8 °F - 23.7 °F 55% 30.16 in 10.0 mi Calm Calm - N/A   Clear
5:13 PM 37.8 °F - 23.9 °F 57% 30.16 in 10.0 mi Calm Calm - N/A   Clear
5:33 PM 36.9 °F - 24.3 °F 60% 30.16 in 10.0 mi Calm Calm - N/A   Clear
5:54 PM 34.0 °F - 24.1 °F 67% 30.17 in 10.0 mi Calm Calm - N/A   Clear
6:13 PM 31.6 °F - 24.4 °F 75% 30.17 in 10.0 mi Calm Calm - N/A   Clear
6:33 PM 30.9 °F - 25.5 °F 80% 30.17 in 10.0 mi Calm Calm - N/A   Clear
6:54 PM 30.7 °F - 25.5 °F 81% 30.17 in 10.0 mi Calm Calm - N/A   Clear
7:13 PM 30.4 °F - 24.6 °F 79% 30.17 in 10.0 mi Calm Calm - N/A   Clear
7:33 PM 29.1 °F - 23.7 °F 80% 30.17 in 10.0 mi Calm Calm - N/A   Clear
7:54 PM 27.5 °F - 23.9 °F 86% 30.17 in 10.0 mi Calm Calm - N/A   Clear
8:13 PM 27.5 °F - 23.9 °F 86% 30.17 in 10.0 mi Calm Calm - N/A   Clear
8:34 PM 26.4 °F - 23.2 °F 88% 30.17 in 10.0 mi Calm Calm - N/A   Clear
8:54 PM 26.6 °F - 23.4 °F 88% 30.18 in 10.0 mi Calm Calm - N/A   Clear
9:13 PM 27.0 °F - 23.2 °F 86% 30.18 in 10.0 mi Calm Calm - N/A   Clear
9:34 PM 26.6 °F - 23.2 °F 87% 30.18 in 10.0 mi Calm Calm - N/A   Clear
9:54 PM 26.2 °F - 22.8 °F 87% 30.18 in 10.0 mi Calm Calm - N/A   Clear
10:13 PM 24.4 °F - 22.8 °F 94% 30.18 in 10.0 mi Calm Calm - N/A   Clear
10:34 PM 24.8 °F 20.5 °F 22.1 °F 89% 30.18 in 10.0 mi ENE 3.5 mph - N/A   Clear
10:53 PM 25.7 °F - 23.5 °F 92% 30.18 in 10.0 mi Calm Calm - N/A   Clear